This is the latest recevied weather packets stored in our database for station/object N8BAP. If no packets are shown the sender has not sent any weather packets the latest 10 day(s).
| Time | Temp. | Humidity | Pressure | Rain* | Wind** | Luminosity | Snow |
|---|---|---|---|---|---|---|---|
| 1778181914 | 14.44° C | 44% | 1019.1 hPa | 0 mm | - | 676 W/m² | - |
| 1778181611 | 14.44° C | 47% | 1019.2 hPa | 0 mm | - | 698 W/m² | - |
| 1778181306 | 14.44° C | 43% | 1019.1 hPa | 0 mm | - | 700 W/m² | - |
| 1778181003 | 14.44° C | 43% | 1019.1 hPa | 0 mm | - | 696 W/m² | - |
| 1778180701 | 14.44° C | 42% | 1019.1 hPa | 0 mm | - | 695 W/m² | - |
| 1778180400 | 14.44° C | 45% | 1019 hPa | 0 mm | - | 694 W/m² | - |
| 1778180096 | 14.44° C | 45% | 1019 hPa | 0 mm | - | 708 W/m² | - |
| 1778179793 | 14.44° C | 42% | 1019.2 hPa | 0 mm | - | 704 W/m² | - |
| 1778179491 | 14.44° C | 43% | 1019.1 hPa | 0 mm | - | 683 W/m² | - |
| 1778179189 | 13.89° C | 46% | 1019 hPa | 0 mm | - | 703 W/m² | - |
| 1778178885 | 14.44° C | 44% | 1019.1 hPa | 0 mm | - | 697 W/m² | - |
| 1778178582 | 14.44° C | 47% | 1018.9 hPa | 0 mm | - | 708 W/m² | - |
| 1778178278 | 13.89° C | 47% | 1019.1 hPa | 0 mm | - | 712 W/m² | - |
| 1778177974 | 13.89° C | 42% | 1019.3 hPa | 0 mm | - | 716 W/m² | - |
| 1778177671 | 14.44° C | 44% | 1019.3 hPa | 0 mm | - | 714 W/m² | - |
| 1778177368 | 14.44° C | 47% | 1019.3 hPa | 0 mm | - | 704 W/m² | - |
| 1778177064 | 13.89° C | 47% | 1019.4 hPa | 0 mm | - | 694 W/m² | - |
| 1778176760 | 13.89° C | 51% | 1019.3 hPa | 0 mm | - | 678 W/m² | - |
| 1778176457 | 13.89° C | 45% | 1019.2 hPa | 0 mm | - | 692 W/m² | - |
| 1778176155 | 13.89° C | 45% | 1019.5 hPa | 0 mm | - | 727 W/m² | - |
| 1778175852 | 13.89° C | 45% | 1019.5 hPa | 0 mm | - | 736 W/m² | - |
| 1778175550 | 13.89° C | 45% | 1019.3 hPa | 0 mm | - | 730 W/m² | - |
| 1778175246 | 13.89° C | 51% | 1019.5 hPa | 0 mm | - | 723 W/m² | - |
| 1778174943 | 13.89° C | 52% | 1019.4 hPa | 0 mm | - | 731 W/m² | - |
| 1778174640 | 13.33° C | 50% | 1019.6 hPa | 0 mm | - | 751 W/m² | - |
* Rain latest hour (hover to see other rain measurements)
** Current wind speed in m/s (hover to see current wind gust speed)